Cambridge, MD

11:47 AM EDT on October 19, 2017 (GMT -0400)
Cambridge-Dorchester

Weather History for KCGE - August, 2013

Change the Weather History Date:

Saturday, August 31, 2013

  Actual Average (KESN) Record (KESN)
Temperature  
Mean Temperature 78 °F -  
Max Temperature 84 °F 86 °F 98 °F (1953)
Min Temperature 73 °F 63 °F 45 °F (1976)
Cooling Degree Days 14    
Growing Degree Days 28 (Base 50)    
Moisture  
Dew Point 70 °F    
Average Humidity 77    
Maximum Humidity 88    
Minimum Humidity 62    
Precipitation  
Precipitation 0.00 in - - ()
Sea Level Pressure  
Sea Level Pressure 29.88 in    
Wind  
Wind Speed 6 mph (South)    
Max Wind Speed 13 mph    
Max Gust Speed 24 mph    
Visibility 10 miles    
Events      
Averages and records for this station are not official NWS values.
T = Trace of Precipitation, MM = Missing Value Source: NWS Daily Summary

Daily Weather History Graph

Daily Weather History Graph

Search for Another Location

Airport or City:

Trip Planner

Search our weather history database for the weather conditions in past years. The results will help you decide how hot, cold, wet, or windy it might be!

Date:

Astronomy

Aug. 31, 2013 Rise Set
Actual Time 6:32 AM EDT 7:35 PM EDT
Civil Twilight 6:05 AM EDT 8:02 PM EDT
Nautical Twilight 5:33 AM EDT 8:34 PM EDT
Astronomical Twilight 4:59 AM EDT 9:08 PM EDT
Moon 2:01 AM EDT (8/31) 4:30 PM EDT (8/31)
Length of Visible Light 13h 56m
Length of Day
13h 02m
Waning Crescent, 21% of the Moon is Illuminated
Aug 31
Waning Crescent
Sep 5
New
Sep 12
First Quarter
Sep 19
Full
Sep 26
Last Quarter

Hourly Weather History & Observations

Time (EDT) Temp. Heat Index Dew Point Humidity Pressure Visibility Wind Dir Wind Speed Gust Speed Precip Events Conditions
12:14 AM 73.4 °F - 69.8 °F 88% 29.95 in 10.0 mi South 4.6 mph - N/A   Clear
12:34 AM 73.4 °F - 69.8 °F 88% 29.94 in 10.0 mi South 8.1 mph - N/A   Clear
12:54 AM 73.4 °F - 69.8 °F 88% 29.93 in 10.0 mi South 5.8 mph - N/A   Clear
1:14 AM 73.4 °F - 69.8 °F 88% 29.93 in 10.0 mi South 6.9 mph - N/A   Clear
1:34 AM 73.4 °F - 69.8 °F 88% 29.92 in 10.0 mi South 3.5 mph - N/A   Clear
1:54 AM 73.4 °F - 69.8 °F 88% 29.92 in 10.0 mi South 5.8 mph - N/A   Clear
2:14 AM 73.4 °F - 69.8 °F 88% 29.91 in 10.0 mi South 4.6 mph - N/A   Clear
2:34 AM 73.4 °F - 69.8 °F 88% 29.90 in 10.0 mi South 5.8 mph - N/A   Clear
2:54 AM 73.4 °F - 69.8 °F 88% 29.90 in 10.0 mi South 4.6 mph - N/A   Clear
3:14 AM 73.4 °F - 69.8 °F 88% 29.89 in 10.0 mi South 5.8 mph - N/A   Clear
3:35 AM 73.4 °F - 69.8 °F 88% 29.90 in 10.0 mi South 3.5 mph - N/A   Clear
3:55 AM 73.4 °F - 69.8 °F 88% 29.89 in 10.0 mi SSW 4.6 mph - N/A   Clear
4:15 AM 73.4 °F - 69.8 °F 88% 29.90 in 10.0 mi South 6.9 mph - N/A   Clear
4:35 AM 73.4 °F - 69.8 °F 88% 29.90 in 10.0 mi South 4.6 mph - N/A   Clear
4:55 AM 73.4 °F - 69.8 °F 88% 29.89 in 10.0 mi South 3.5 mph - N/A   Clear
5:15 AM 73.4 °F - 69.8 °F 88% 29.89 in 10.0 mi South 5.8 mph - N/A   Clear
5:35 AM 73.4 °F - 69.8 °F 88% 29.90 in 10.0 mi South 3.5 mph - N/A   Clear
5:55 AM 73.4 °F - 69.8 °F 88% 29.90 in 10.0 mi South 4.6 mph - N/A   Clear
6:15 AM 73.4 °F - 69.8 °F 88% 29.90 in 10.0 mi South 3.5 mph - N/A   Clear
6:35 AM 73.4 °F - 69.8 °F 88% 29.90 in 10.0 mi South 3.5 mph - N/A   Clear
6:55 AM 73.4 °F - 69.8 °F 88% 29.89 in 10.0 mi South 3.5 mph - N/A   Clear
7:15 AM 73.4 °F - 69.8 °F 88% 29.89 in 10.0 mi South 4.6 mph - N/A   Clear
7:35 AM 73.4 °F - 69.8 °F 88% 29.89 in 10.0 mi South 3.5 mph - N/A   Clear
7:55 AM 75.2 °F - 69.8 °F 83% 29.90 in 10.0 mi South 4.6 mph - N/A   Clear
8:15 AM 75.2 °F - 69.8 °F 83% 29.89 in 10.0 mi SSW 3.5 mph - N/A   Clear
8:35 AM 78.8 °F - 69.8 °F 74% 29.90 in 10.0 mi South 4.6 mph - N/A   Clear
8:55 AM 78.8 °F - 69.8 °F 74% 29.90 in 10.0 mi SSW 8.1 mph - N/A   Clear
9:15 AM 78.8 °F - 68.0 °F 69% 29.90 in 10.0 mi South 8.1 mph - N/A   Clear
9:35 AM 78.8 °F - 69.8 °F 74% 29.91 in 10.0 mi SSW 5.8 mph - N/A   Clear
9:55 AM 80.6 °F 83.9 °F 69.8 °F 70% 29.90 in 10.0 mi South 8.1 mph - N/A   Clear
10:15 AM 80.6 °F 83.9 °F 69.8 °F 70% 29.91 in 10.0 mi SSW 8.1 mph - N/A   Clear
10:35 AM 80.6 °F 83.2 °F 68.0 °F 65% 29.91 in 10.0 mi South 5.8 mph - N/A   Clear
10:55 AM 80.6 °F 83.9 °F 69.8 °F 70% 29.90 in 10.0 mi SSW 5.8 mph - N/A   Clear
11:15 AM 82.4 °F 85.4 °F 68.0 °F 62% 29.90 in 10.0 mi South 10.4 mph - N/A   Clear
11:35 AM 82.4 °F 86.3 °F 69.8 °F 66% 29.90 in 10.0 mi South 11.5 mph - N/A   Scattered Clouds
11:56 AM 82.4 °F 85.4 °F 68.0 °F 62% 29.89 in 10.0 mi SSW 10.4 mph - N/A   Scattered Clouds
12:16 PM 82.4 °F 86.3 °F 69.8 °F 66% 29.89 in 10.0 mi South 9.2 mph 17.3 mph N/A   Scattered Clouds
12:36 PM 82.4 °F 86.3 °F 69.8 °F 66% 29.89 in 10.0 mi SSW 8.1 mph - N/A   Clear
12:56 PM 82.4 °F 86.3 °F 69.8 °F 66% 29.89 in 10.0 mi SSW 9.2 mph - N/A   Clear
1:16 PM 82.4 °F 86.3 °F 69.8 °F 66% 29.89 in 10.0 mi South 6.9 mph 16.1 mph N/A   Scattered Clouds
1:36 PM 82.4 °F 86.3 °F 69.8 °F 66% 29.88 in 10.0 mi South 8.1 mph 16.1 mph N/A   Clear
1:56 PM 82.4 °F 86.3 °F 69.8 °F 66% 29.88 in 10.0 mi South 10.4 mph 18.4 mph N/A   Clear
2:16 PM 84.2 °F 88.4 °F 69.8 °F 62% 29.87 in 10.0 mi South 12.7 mph 19.6 mph N/A   Clear
2:36 PM 84.2 °F 88.4 °F 69.8 °F 62% 29.86 in 10.0 mi South 10.4 mph 19.6 mph N/A   Clear
2:56 PM 84.2 °F 88.4 °F 69.8 °F 62% 29.86 in 10.0 mi South 10.4 mph 24.2 mph N/A   Clear
3:16 PM 84.2 °F 88.4 °F 69.8 °F 62% 29.85 in 10.0 mi South 11.5 mph 18.4 mph N/A   Clear
3:36 PM 84.2 °F 88.4 °F 69.8 °F 62% 29.85 in 10.0 mi South 12.7 mph 18.4 mph N/A   Clear
3:56 PM 84.2 °F 89.6 °F 71.6 °F 66% 29.85 in 10.0 mi South 11.5 mph 19.6 mph N/A   Clear
4:16 PM 84.2 °F 89.6 °F 71.6 °F 66% 29.84 in 10.0 mi South 9.2 mph 19.6 mph N/A   Clear
4:36 PM 82.4 °F 87.2 °F 71.6 °F 70% 29.84 in 10.0 mi South 11.5 mph 20.7 mph N/A   Clear
4:56 PM 82.4 °F 86.3 °F 69.8 °F 66% 29.84 in 10.0 mi South 8.1 mph - N/A   Clear
5:16 PM 82.4 °F 86.3 °F 69.8 °F 66% 29.84 in 10.0 mi South 9.2 mph 20.7 mph N/A   Clear
5:36 PM 82.4 °F 86.3 °F 69.8 °F 66% 29.83 in 10.0 mi South 8.1 mph - N/A   Clear
5:56 PM 82.4 °F 86.3 °F 69.8 °F 66% 29.83 in 10.0 mi South 8.1 mph - N/A   Clear
6:16 PM 80.6 °F 83.9 °F 69.8 °F 70% 29.84 in 10.0 mi South 6.9 mph - N/A   Clear
6:36 PM 80.6 °F 83.9 °F 69.8 °F 70% 29.83 in 10.0 mi South 8.1 mph - N/A   Clear
6:56 PM 80.6 °F 83.9 °F 69.8 °F 70% 29.84 in 10.0 mi South 6.9 mph - N/A   Clear
7:16 PM 80.6 °F 83.9 °F 69.8 °F 70% 29.84 in 10.0 mi South 6.9 mph - N/A   Clear
7:36 PM 80.6 °F 84.6 °F 71.6 °F 74% 29.84 in 10.0 mi South 5.8 mph - N/A   Clear
7:56 PM 78.8 °F - 69.8 °F 74% 29.84 in 10.0 mi South 4.6 mph - N/A   Clear
8:16 PM 78.8 °F - 69.8 °F 74% 29.85 in 10.0 mi South 3.5 mph - N/A   Clear
8:36 PM 78.8 °F - 69.8 °F 74% 29.86 in 10.0 mi South 4.6 mph - N/A   Clear
8:57 PM 78.8 °F - 71.6 °F 78% 29.86 in 10.0 mi SSE 6.9 mph - N/A   Clear
9:17 PM 78.8 °F - 71.6 °F 78% 29.86 in 10.0 mi SSE 6.9 mph - N/A   Scattered Clouds
9:37 PM 78.8 °F - 71.6 °F 78% 29.86 in 10.0 mi SSE 4.6 mph - N/A   Scattered Clouds
9:57 PM 78.8 °F - 73.4 °F 83% 29.87 in 10.0 mi SSE 6.9 mph - N/A   Scattered Clouds
10:17 PM 78.8 °F - 73.4 °F 83% 29.86 in 10.0 mi SSE 6.9 mph - N/A   Scattered Clouds
10:37 PM 78.8 °F - 73.4 °F 83% 29.86 in 10.0 mi SSE 6.9 mph - N/A   Scattered Clouds
10:57 PM 78.8 °F - 73.4 °F 83% 29.86 in 10.0 mi SSE 5.8 mph - N/A   Mostly Cloudy
11:17 PM 78.8 °F - 73.4 °F 83% 29.86 in 10.0 mi South 4.6 mph - N/A   Scattered Clouds
11:37 PM 78.8 °F - 73.4 °F 83% 29.86 in 10.0 mi South 5.8 mph - N/A   Clear
11:57 PM 78.8 °F - 73.4 °F 83% 29.85 in 10.0 mi South 5.8 mph - N/A   Clear